Fairfield, IL

12:55 PM CST on December 06, 2019 (GMT -0600)
Fairfield Municipal

Weather History for KFWC - October, 2019

Change the Weather History Date:

Friday, October 18, 2019

  Actual Average (KEVV) Record (KEVV)
Temperature  
Mean Temperature 49 °F -  
Max Temperature 64 °F 65 °F 87 °F (2016)
Min Temperature 34 °F 43 °F 26 °F (1948)
Degree Days  
Heating Degree Days 16    
Moisture  
Dew Point 39 °F    
Average Humidity 75    
Maximum Humidity 100    
Minimum Humidity 40    
Precipitation  
Precipitation 0.00 in - - ()
Sea Level Pressure  
Sea Level Pressure 30.00 in    
Wind  
Wind Speed 1 mph ()    
Max Wind Speed 6 mph    
Max Gust Speed -    
Visibility 9.9 miles    
Events      
Averages and records for this station are not official NWS values.
T = Trace of Precipitation, MM = Missing Value Source: Averaged Metar Reports

Daily Weather History Graph

Daily Weather History Graph

Search for Another Location

Airport or City:

Astronomy

Oct. 18, 2019 Rise Set
Actual Time 7:05 AM CDT 6:11 PM CDT
Civil Twilight 6:38 AM CDT 6:38 PM CDT
Nautical Twilight 6:07 AM CDT 7:09 PM CDT
Astronomical Twilight 5:37 AM CDT 7:39 PM CDT
Moon 9:31 PM CDT (10/18) 11:35 AM CDT (10/18)
Length of Visible Light 11h 59m
Length of Day
11h 06m
Waning Gibbous, 78% of the Moon is Illuminated
Oct 18
Waning Gibbous
Oct 21
Last Quarter
Oct 27
New
Nov 4
First Quarter
Nov 12
Full

Hourly Weather History & Observations

Time (CDT) Temp. Dew Point Humidity Pressure Visibility Wind Dir Wind Speed Gust Speed Precip Events Conditions
12:15 AM 37.8 °F 37.8 °F 100% 30.03 in 10.0 mi Calm Calm - N/A   Clear
12:35 AM 37.8 °F 37.8 °F 100% 30.03 in 10.0 mi Calm Calm - N/A   Clear
12:55 AM 37.8 °F 37.8 °F 100% 30.03 in 10.0 mi Calm Calm - N/A   Clear
1:15 AM 36.5 °F 36.5 °F 100% 30.03 in 10.0 mi Calm Calm - N/A   Clear
1:35 AM 37.2 °F 37.2 °F 100% 30.03 in 10.0 mi Calm Calm - N/A   Clear
1:55 AM 37.9 °F 37.9 °F 100% 30.03 in 10.0 mi Calm Calm - N/A   Clear
2:15 AM 38.5 °F 38.5 °F 100% 30.04 in 10.0 mi Calm Calm - N/A   Clear
2:35 AM 38.5 °F 38.5 °F 100% 30.04 in 10.0 mi Calm Calm - N/A   Clear
2:55 AM 37.4 °F 37.4 °F 100% 30.04 in 10.0 mi Calm Calm - N/A   Clear
3:15 AM 37.4 °F 37.4 °F 100% 30.03 in 10.0 mi Calm Calm - N/A   Clear
3:35 AM 36.9 °F 36.9 °F 100% 30.03 in 10.0 mi Calm Calm - N/A   Clear
3:55 AM 37.0 °F 37.0 °F 100% 30.04 in 10.0 mi Calm Calm - N/A   Clear
4:15 AM 36.3 °F 36.3 °F 100% 30.04 in 10.0 mi Calm Calm - N/A   Clear
4:35 AM 38.5 °F 38.5 °F 100% 30.03 in 10.0 mi Calm Calm - N/A   Clear
4:55 AM 39.0 °F 37.6 °F 95% 30.03 in 10.0 mi Calm Calm - N/A   Clear
5:15 AM 37.4 °F 37.4 °F 100% 30.04 in 10.0 mi Calm Calm - N/A   Clear
5:35 AM 37.2 °F 37.2 °F 100% 30.05 in 10.0 mi Calm Calm - N/A   Clear
5:55 AM 36.5 °F 36.5 °F 100% 30.06 in 10.0 mi Calm Calm - N/A   Clear
6:15 AM 34.7 °F 34.7 °F 100% 30.06 in 10.0 mi Calm Calm - N/A   Clear
6:35 AM 34.7 °F 34.7 °F 100% 30.06 in 10.0 mi Calm Calm - N/A   Clear
6:55 AM 35.1 °F 35.1 °F 100% 30.07 in 10.0 mi Calm Calm - N/A   Clear
7:15 AM 35.6 °F 35.6 °F 100% 30.07 in 10.0 mi Calm Calm - N/A   Clear
7:35 AM 36.5 °F 36.5 °F 100% 30.08 in 10.0 mi Calm Calm - N/A   Clear
7:55 AM 36.5 °F 36.5 °F 100% 30.08 in 10.0 mi Calm Calm - N/A   Clear
8:15 AM 39.4 °F 39.4 °F 100% 30.09 in 10.0 mi Calm Calm - N/A   Clear
8:35 AM 42.8 °F 41.5 °F 95% 30.09 in 10.0 mi Calm Calm - N/A   Clear
8:55 AM 46.0 °F 42.1 °F 86% 30.09 in 10.0 mi Calm Calm - N/A   Clear
9:15 AM 47.8 °F 41.5 °F 79% 30.09 in 5.0 mi Calm Calm - N/A   Haze
9:35 AM 49.8 °F 41.7 °F 74% 30.09 in 7.0 mi Calm Calm - N/A   Clear
9:55 AM 52.0 °F 41.9 °F 69% 30.09 in 10.0 mi Calm Calm - N/A   Clear
10:15 AM 53.6 °F 41.9 °F 65% 30.09 in 10.0 mi Calm Calm - N/A   Clear
10:35 AM 55.8 °F 41.5 °F 59% 30.08 in 10.0 mi SSE 4.6 mph - N/A   Clear
10:55 AM 57.2 °F 41.0 °F 55% 30.08 in 10.0 mi SSE 3.5 mph - N/A   Clear
11:15 AM 57.9 °F 39.9 °F 51% 30.07 in 10.0 mi SSE 4.6 mph - N/A   Clear
11:35 AM 59.2 °F 39.7 °F 49% 30.07 in 10.0 mi SE 4.6 mph - N/A   Clear
11:55 AM 60.1 °F 39.7 °F 47% 30.06 in 10.0 mi ESE 4.6 mph - N/A   Clear
12:15 PM 60.1 °F 39.7 °F 47% 30.06 in 10.0 mi Calm Calm - N/A   Clear
12:35 PM 61.2 °F 40.3 °F 46% 30.05 in 10.0 mi SSE 4.6 mph - N/A   Clear
12:55 PM 61.7 °F 40.3 °F 45% 30.04 in 10.0 mi ESE 4.6 mph - N/A   Clear
1:15 PM 61.5 °F 39.7 °F 45% 30.03 in 10.0 mi SSE 4.6 mph - N/A   Clear
1:35 PM 62.4 °F 39.6 °F 43% 30.01 in 10.0 mi SE 5.8 mph - N/A   Clear
1:55 PM 63.5 °F 39.0 °F 41% 30.00 in 10.0 mi ESE 5.8 mph - N/A   Clear
2:15 PM 63.5 °F 39.7 °F 42% 29.99 in 10.0 mi ESE 4.6 mph - N/A   Clear
2:35 PM 63.9 °F 39.9 °F 41% 29.98 in 10.0 mi ESE 3.5 mph - N/A   Clear
3:15 PM 64.2 °F 39.6 °F 40% 29.97 in 10.0 mi ESE 3.5 mph - N/A   Clear
3:35 PM 64.4 °F 39.4 °F 40% 29.96 in 10.0 mi ESE 4.6 mph - N/A   Clear
3:55 PM 64.6 °F 39.7 °F 40% 29.96 in 10.0 mi East 5.8 mph - N/A   Clear
4:15 PM 64.4 °F 39.6 °F 40% 29.95 in 10.0 mi ESE 3.5 mph - N/A   Clear
4:35 PM 64.4 °F 39.7 °F 40% 29.95 in 10.0 mi SE 4.6 mph - N/A   Clear
4:55 PM 64.4 °F 40.1 °F 41% 29.95 in 10.0 mi ESE 5.8 mph - N/A   Clear
5:15 PM 63.7 °F 40.3 °F 42% 29.94 in 10.0 mi Calm Calm - N/A   Clear
5:35 PM 62.6 °F 40.3 °F 44% 29.93 in 10.0 mi ESE 3.5 mph - N/A   Clear
5:55 PM 60.1 °F 40.6 °F 49% 29.93 in 10.0 mi ESE 3.5 mph - N/A   Clear
6:15 PM 57.7 °F 40.3 °F 52% 29.92 in 10.0 mi Calm Calm - N/A   Clear
6:35 PM 55.4 °F 40.5 °F 57% 29.92 in 10.0 mi Calm Calm - N/A   Clear
6:55 PM 51.8 °F 40.8 °F 66% 29.92 in 10.0 mi Calm Calm - N/A   Clear
7:15 PM 51.1 °F 41.2 °F 69% 29.92 in 10.0 mi Calm Calm - N/A   Clear
7:35 PM 48.6 °F 41.9 °F 78% 29.92 in 10.0 mi Calm Calm - N/A   Clear
7:55 PM 48.6 °F 41.5 °F 77% 29.92 in 10.0 mi Calm Calm - N/A   Clear
8:15 PM 47.8 °F 41.5 °F 79% 29.92 in 10.0 mi Calm Calm - N/A   Clear
8:35 PM 47.3 °F 41.0 °F 79% 29.92 in 10.0 mi Calm Calm - N/A   Clear
8:55 PM 47.7 °F 41.2 °F 78% 29.92 in 10.0 mi Calm Calm - N/A   Clear
9:15 PM 48.6 °F 40.6 °F 74% 29.92 in 10.0 mi Calm Calm - N/A   Clear
9:35 PM 45.9 °F 41.4 °F 84% 29.92 in 10.0 mi Calm Calm - N/A   Clear
9:55 PM 46.9 °F 41.0 °F 80% 29.92 in 10.0 mi Calm Calm - N/A   Clear
10:15 PM 47.3 °F 40.8 °F 78% 29.92 in 10.0 mi Calm Calm - N/A   Clear
10:35 PM 47.1 °F 41.0 °F 79% 29.91 in 10.0 mi Calm Calm - N/A   Clear
10:55 PM 46.4 °F 40.6 °F 80% 29.90 in 10.0 mi Calm Calm - N/A   Clear
11:15 PM 47.1 °F 40.8 °F 79% 29.90 in 10.0 mi Calm Calm - N/A   Clear
11:35 PM 48.0 °F 41.0 °F 77% 29.89 in 10.0 mi Calm Calm - N/A   Clear
11:55 PM 47.3 °F 41.0 °F 79% 29.89 in 10.0 mi Calm Calm - N/A   Clear